Time,TemperatureF,DewpointF,PressureIn,WindDirection,WindDirectionDegrees,WindSpeedMPH,WindSpeedGustMPH,Humidity,HourlyPrecipIn,Conditions,Clouds,dailyrainin,SolarRadiationWatts/m^2,SoftwareType,DateUTC
2013-08-19 00:03:00,67.0,67.0,-100.00,South,183,1.0,6.0,100,0.00,,,0.56,0.000000,,2013-08-19 04:03:00,
2013-08-19 00:12:00,67.0,67.0,-100.00,South,183,1.0,6.0,100,0.00,,,0.56,0.000000,,2013-08-19 04:12:00,
2013-08-19 00:43:00,67.0,67.0,-100.00,SE,129,1.0,2.0,100,0.00,,,0.56,0.000000,,2013-08-19 04:43:00,
2013-08-19 00:53:00,67.0,67.0,-100.00,SE,129,1.0,2.0,100,0.00,,,0.56,0.000000,,2013-08-19 04:53:00,
2013-08-19 01:02:00,67.0,67.0,-100.00,SE,129,1.0,2.0,100,0.00,,,0.56,0.000000,,2013-08-19 05:02:00,
2013-08-19 01:11:00,67.0,67.0,-100.00,SE,129,1.0,2.0,100,0.00,,,0.56,0.000000,,2013-08-19 05:11:00,
2013-08-19 01:42:00,66.0,66.0,-100.00,SE,128,0.0,0.0,100,0.01,,,0.52,0.000000,,2013-08-19 05:42:00,
2013-08-19 01:52:00,66.0,66.0,-100.00,SE,128,0.0,0.0,100,0.01,,,0.52,0.000000,,2013-08-19 05:52:00,
2013-08-19 02:02:00,66.0,66.0,-100.00,SE,128,0.0,0.0,100,0.01,,,0.52,0.000000,,2013-08-19 06:02:00,
2013-08-19 02:11:00,66.0,66.0,-100.00,SE,128,0.0,0.0,100,0.01,,,0.52,0.000000,,2013-08-19 06:11:00,
2013-08-19 02:42:00,66.0,66.0,-100.00,SE,125,0.0,0.0,100,0.02,,,0.51,0.000000,,2013-08-19 06:42:00,
2013-08-19 02:52:00,66.0,66.0,-100.00,SE,125,0.0,0.0,100,0.02,,,0.51,0.000000,,2013-08-19 06:52:00,
2013-08-19 03:01:00,66.0,66.0,-100.00,SE,125,0.0,0.0,100,0.02,,,0.51,0.000000,,2013-08-19 07:01:00,
2013-08-19 03:12:00,66.0,66.0,-100.00,SE,125,0.0,0.0,100,0.02,,,0.51,0.000000,,2013-08-19 07:12:00,
2013-08-19 03:42:00,65.0,65.0,-100.00,East,96,2.0,3.0,100,0.02,,,0.47,0.000000,,2013-08-19 07:42:00,
2013-08-19 03:52:00,65.0,65.0,-100.00,East,96,2.0,3.0,100,0.02,,,0.47,0.000000,,2013-08-19 07:52:00,
2013-08-19 04:02:00,65.0,65.0,-100.00,East,96,2.0,3.0,100,0.02,,,0.47,0.000000,,2013-08-19 08:02:00,
2013-08-19 04:11:00,65.0,65.0,-100.00,East,96,2.0,3.0,100,0.02,,,0.47,0.000000,,2013-08-19 08:11:00,
2013-08-19 04:42:00,65.0,65.0,-100.00,ENE,77,1.0,3.0,100,0.00,,,0.38,0.000000,,2013-08-19 08:42:00,
2013-08-19 04:52:00,65.0,65.0,-100.00,ENE,77,1.0,3.0,100,0.00,,,0.38,0.000000,,2013-08-19 08:52:00,
2013-08-19 05:01:00,65.0,65.0,-100.00,ENE,77,1.0,3.0,100,0.00,,,0.38,0.000000,,2013-08-19 09:01:00,
2013-08-19 05:11:00,65.0,65.0,-100.00,ENE,77,1.0,3.0,100,0.00,,,0.38,0.000000,,2013-08-19 09:11:00,
2013-08-19 05:43:00,65.0,65.0,-100.00,SSE,168,0.0,2.0,100,0.00,,,0.28,0.000000,,2013-08-19 09:43:00,
2013-08-19 05:53:00,65.0,65.0,-100.00,SSE,168,0.0,2.0,100,0.00,,,0.28,0.000000,,2013-08-19 09:53:00,
2013-08-19 06:03:00,65.0,65.0,-100.00,SSE,168,0.0,2.0,100,0.00,,,0.28,0.000000,,2013-08-19 10:03:00,
2013-08-19 06:12:00,65.0,65.0,-100.00,SSE,168,0.0,2.0,100,0.00,,,0.28,0.000000,,2013-08-19 10:12:00,
2013-08-19 06:43:00,65.0,65.0,-100.00,SE,135,0.0,2.0,100,0.00,,,0.22,0.000000,,2013-08-19 10:43:00,
2013-08-19 06:52:00,65.0,65.0,-100.00,SE,135,0.0,2.0,100,0.00,,,0.22,0.000000,,2013-08-19 10:52:00,
2013-08-19 07:02:00,65.0,65.0,-100.00,SE,135,0.0,2.0,100,0.00,,,0.22,0.000000,,2013-08-19 11:02:00,
2013-08-19 07:12:00,65.0,65.0,-100.00,SE,135,0.0,2.0,100,0.00,,,0.22,0.000000,,2013-08-19 11:12:00,
2013-08-19 07:45:00,65.0,65.0,-100.00,NE,52,1.0,4.0,100,0.00,,,0.22,1.000000,,2013-08-19 11:45:00,
2013-08-19 07:52:00,65.0,65.0,-100.00,NE,52,1.0,4.0,100,0.00,,,0.22,1.000000,,2013-08-19 11:52:00,
2013-08-19 08:02:00,65.0,65.0,-100.00,NE,52,1.0,4.0,100,0.00,,,0.22,1.000000,,2013-08-19 12:02:00,
2013-08-19 08:11:00,65.0,65.0,-100.00,NE,52,1.0,4.0,100,0.00,,,0.22,1.000000,,2013-08-19 12:11:00,
2013-08-19 08:42:00,66.0,66.0,-100.00,ENE,58,1.0,4.0,100,0.00,,,0.21,20.000000,,2013-08-19 12:42:00,
2013-08-19 08:52:00,66.0,66.0,-100.00,ENE,58,1.0,4.0,100,0.00,,,0.21,20.000000,,2013-08-19 12:52:00,
2013-08-19 09:03:00,66.0,66.0,-100.00,ENE,58,1.0,4.0,100,0.00,,,0.21,20.000000,,2013-08-19 13:03:00,
2013-08-19 09:13:00,66.0,66.0,-100.00,ENE,58,1.0,4.0,100,0.00,,,0.21,20.000000,,2013-08-19 13:13:00,
2013-08-19 09:42:00,67.0,67.0,-100.00,South,172,2.0,2.0,100,0.00,,,0.21,47.000000,,2013-08-19 13:42:00,
2013-08-19 09:52:00,67.0,67.0,-100.00,South,172,2.0,2.0,100,0.00,,,0.21,47.000000,,2013-08-19 13:52:00,
2013-08-19 10:02:00,67.0,67.0,-100.00,South,172,2.0,2.0,100,0.00,,,0.21,47.000000,,2013-08-19 14:02:00,
2013-08-19 10:11:00,67.0,67.0,-100.00,South,172,2.0,2.0,100,0.00,,,0.21,47.000000,,2013-08-19 14:11:00,
2013-08-19 10:42:00,69.0,68.0,-100.00,South,171,1.0,2.0,98,0.00,,,0.21,127.000000,,2013-08-19 14:42:00,
2013-08-19 10:52:00,69.0,68.0,-100.00,South,171,1.0,2.0,98,0.00,,,0.21,127.000000,,2013-08-19 14:52:00,
2013-08-19 11:01:00,69.0,68.0,-100.00,South,171,1.0,2.0,98,0.00,,,0.21,127.000000,,2013-08-19 15:01:00,
2013-08-19 11:11:00,69.0,68.0,-100.00,South,171,1.0,2.0,98,0.00,,,0.21,127.000000,,2013-08-19 15:11:00,
2013-08-19 11:44:00,71.0,69.0,-100.00,SE,129,1.0,2.0,95,0.00,,,0.21,160.000000,,2013-08-19 15:44:00,
2013-08-19 11:54:00,71.0,69.0,-100.00,SE,129,1.0,2.0,95,0.00,,,0.21,160.000000,,2013-08-19 15:54:00,
2013-08-19 12:05:00,71.0,69.0,-100.00,SE,129,1.0,2.0,95,0.00,,,0.21,160.000000,,2013-08-19 16:05:00,
2013-08-19 12:13:00,71.0,69.0,-100.00,SE,129,1.0,2.0,95,0.00,,,0.21,160.000000,,2013-08-19 16:13:00,
2013-08-19 12:47:00,71.0,70.0,-100.00,SSE,149,1.0,3.0,96,0.00,,,0.21,165.000000,,2013-08-19 16:47:00,
2013-08-19 13:04:00,71.0,70.0,-100.00,SSE,149,1.0,3.0,96,0.00,,,0.21,165.000000,,2013-08-19 17:04:00,
2013-08-19 13:13:00,71.0,70.0,-100.00,SSE,149,1.0,3.0,96,0.00,,,0.21,165.000000,,2013-08-19 17:13:00,
2013-08-19 13:17:00,71.0,69.0,-100.00,SE,142,2.0,3.0,94,0.00,,,0.21,181.000000,,2013-08-19 17:17:00,
2013-08-19 13:49:00,71.0,69.0,-100.00,SE,142,2.0,3.0,94,0.00,,,0.21,181.000000,,2013-08-19 17:49:00,
2013-08-19 13:57:00,71.0,69.0,-100.00,SE,142,2.0,3.0,94,0.00,,,0.21,181.000000,,2013-08-19 17:57:00,
2013-08-19 14:05:00,71.0,69.0,-100.00,SE,142,2.0,3.0,94,0.00,,,0.21,181.000000,,2013-08-19 18:05:00,
2013-08-19 14:50:00,-999.0,-99.9,-100.00,South,172,1.0,4.0,96,0.01,,,0.22,175.000000,,2013-08-19 18:50:00,
2013-08-19 15:00:00,-999.0,-99.9,-100.00,South,172,1.0,4.0,96,0.01,,,0.22,175.000000,,2013-08-19 19:00:00,
2013-08-19 15:07:00,72.0,71.0,-100.00,South,172,1.0,4.0,96,0.01,,,0.22,175.000000,,2013-08-19 19:07:00,
2013-08-19 15:16:00,72.0,71.0,-100.00,South,172,1.0,4.0,96,0.01,,,0.22,175.000000,,2013-08-19 19:16:00,
2013-08-19 15:17:00,72.0,69.0,-100.00,SSE,162,2.0,7.0,91,0.00,,,0.22,229.000000,,2013-08-19 19:17:00,
2013-08-19 15:50:00,72.0,69.0,-100.00,SSE,162,2.0,7.0,91,0.00,,,0.22,229.000000,,2013-08-19 19:50:00,
2013-08-19 15:59:00,72.0,69.0,-100.00,SSE,162,2.0,7.0,91,0.00,,,0.22,229.000000,,2013-08-19 19:59:00,
2013-08-19 16:08:00,72.0,69.0,-100.00,SSE,162,2.0,7.0,91,0.00,,,0.22,229.000000,,2013-08-19 20:08:00,
2013-08-19 16:50:00,78.0,74.0,-100.00,South,176,2.0,4.0,87,0.00,,,0.16,406.000000,,2013-08-19 20:50:00,
2013-08-19 17:00:00,-999.0,-99.9,-100.00,South,176,2.0,4.0,-999,-99.99,,,-99.99,406.000000,,2013-08-19 21:00:00,
2013-08-19 17:08:00,78.0,74.0,-100.00,South,176,2.0,4.0,87,0.00,,,0.16,406.000000,,2013-08-19 21:08:00,
2013-08-19 17:16:00,78.0,74.0,-100.00,South,176,2.0,4.0,87,0.00,,,0.16,406.000000,,2013-08-19 21:16:00,
2013-08-19 17:46:00,74.0,70.0,-100.00,SSW,197,3.0,9.0,87,0.00,,,0.16,231.000000,,2013-08-19 21:46:00,
2013-08-19 17:55:00,74.0,70.0,-100.00,SSW,197,3.0,9.0,87,0.00,,,0.16,231.000000,,2013-08-19 21:55:00,
2013-08-19 18:06:00,74.0,70.0,-100.00,SSW,197,3.0,9.0,87,0.00,,,0.16,231.000000,,2013-08-19 22:06:00,
2013-08-19 18:44:00,72.0,69.0,-100.00,SSE,168,3.0,5.0,91,0.00,,,0.16,194.000000,,2013-08-19 22:44:00,
2013-08-19 18:55:00,72.0,69.0,-100.00,SSE,168,3.0,5.0,91,0.00,,,0.16,194.000000,,2013-08-19 22:55:00,
2013-08-19 19:05:00,72.0,69.0,-100.00,SSE,168,3.0,5.0,91,0.00,,,0.16,194.000000,,2013-08-19 23:05:00,
2013-08-19 19:15:00,72.0,69.0,-100.00,SSE,168,3.0,5.0,91,0.00,,,0.16,194.000000,,2013-08-19 23:15:00,
2013-08-19 19:48:00,74.0,71.0,-100.00,SW,232,2.0,5.0,91,0.00,,,0.16,122.000000,,2013-08-19 23:48:00,
2013-08-19 19:55:00,74.0,71.0,-100.00,SW,232,2.0,5.0,91,0.00,,,0.16,122.000000,,2013-08-19 23:55:00,
2013-08-19 20:02:00,74.0,71.0,-100.00,SW,232,2.0,5.0,91,0.00,,,0.16,122.000000,,2013-08-20 00:02:00,
2013-08-19 20:11:00,74.0,71.0,-100.00,SW,232,2.0,5.0,91,0.00,,,0.16,122.000000,,2013-08-20 00:11:00,
2013-08-19 20:42:00,69.0,68.0,-100.00,SSE,167,3.0,5.0,97,0.00,,,0.12,23.000000,,2013-08-20 00:42:00,
2013-08-19 20:53:00,69.0,68.0,-100.00,SSE,167,3.0,5.0,97,0.00,,,0.12,23.000000,,2013-08-20 00:53:00,
2013-08-19 21:03:00,69.0,68.0,-100.00,SSE,167,3.0,5.0,97,0.00,,,0.12,23.000000,,2013-08-20 01:03:00,
2013-08-19 21:11:00,69.0,68.0,-100.00,SSE,167,3.0,5.0,97,0.00,,,0.12,23.000000,,2013-08-20 01:11:00,
2013-08-19 21:42:00,67.0,67.0,-100.00,South,191,2.0,4.0,100,0.00,,,0.12,0.000000,,2013-08-20 01:42:00,
2013-08-19 21:52:00,67.0,67.0,-100.00,South,191,2.0,4.0,100,0.00,,,0.12,0.000000,,2013-08-20 01:52:00,
2013-08-19 22:02:00,67.0,67.0,-100.00,South,191,2.0,4.0,100,0.00,,,0.12,0.000000,,2013-08-20 02:02:00,
2013-08-19 22:11:00,67.0,67.0,-100.00,South,191,2.0,4.0,100,0.00,,,0.12,0.000000,,2013-08-20 02:11:00,
2013-08-19 22:42:00,66.0,66.0,-100.00,WSW,253,2.0,4.0,100,0.00,,,0.06,0.000000,,2013-08-20 02:42:00,
2013-08-19 22:52:00,66.0,66.0,-100.00,WSW,253,2.0,4.0,100,0.00,,,0.06,0.000000,,2013-08-20 02:52:00,
2013-08-19 23:02:00,66.0,66.0,-100.00,WSW,253,2.0,4.0,100,0.00,,,0.06,0.000000,,2013-08-20 03:02:00,
2013-08-19 23:11:00,66.0,66.0,-100.00,WSW,253,2.0,4.0,100,0.00,,,0.06,0.000000,,2013-08-20 03:11:00,
2013-08-19 23:43:00,65.0,65.0,-100.00,WSW,252,3.0,4.0,100,0.00,,,0.06,0.000000,,2013-08-20 03:43:00,
2013-08-19 23:54:00,65.0,65.0,-100.00,WSW,252,3.0,4.0,100,0.00,,,0.06,0.000000,,2013-08-20 03:54:00,